Location: Atherton
(17.2661°S, 145.4859°E)
Time: 21:53:38
(UTC+10:00)

BlueWalker 3 - Pass Details

Date: 24 April 2026
Orbit: 447 x 458 km, 53.2° (Epoch: 11 May)

Event Time Altitude Azimuth Distance (km) Brightness Sun altitude
Exits shadow 04:49:55 23° 16° (NNE) 1,004 3.6 -24.1°
Drops below altitude 10° 04:51:23 10° 24° (NNE) 1,563 4.8 -23.8°
Sets 04:53:30 0° 28° (NNE) 2,427 5.9 -23.3°
